Weather History for Sheboygan, WI

Change the Weather History Date:

Sunday, January 26, 2014

  Actual Average Record
Temperature  
Mean Temperature 10 °F -  
Max Temperature 17 °F 28 °F 53 °F (1973)
Min Temperature 3 °F 12 °F -10 °F (1972)
Degree Days  
Heating Degree Days 55    
Moisture  
Dew Point 3 °F    
Average Humidity 81    
Maximum Humidity 96    
Minimum Humidity 60    
Precipitation  
Precipitation 0.06 in - - ()
Sea Level Pressure  
Sea Level Pressure 29.48 in    
Wind  
Wind Speed 7 mph (WSW)    
Max Wind Speed 23 mph    
Max Gust Speed 33 mph    
Visibility 4 miles    
Events Snow    
Averages and records for this station are not official NWS values.
T = Trace of Precipitation, MM = Missing Value Source: NWS Daily Summary

Daily Weather History Graph

Daily Weather History Graph

Search for Another Location

Airport:

Trip Planner

Search our weather history database for the weather conditions in past years. The results will help you decide how hot, cold, wet, or windy it might be!

Date:

Astronomy

Jan. 26, 2014 Rise Set
Actual Time 7:14 AM CST 4:54 PM CST
Civil Twilight 6:43 AM CST 5:25 PM CST
Nautical Twilight 6:08 AM CST 6:00 PM CST
Astronomical Twilight 5:34 AM CST 6:34 PM CST
Moon 2:51 AM CST (1/26) 12:42 PM CST (1/26)
Length of Visible Light 10h 42m
Length of Day
9h 39m
Waning Crescent, 23% of the Moon is Illuminated
Jan 26
Waning Crescent
Jan 30
New
Feb 6
First Quarter
Feb 14
Full
Feb 22
Last Quarter

Hourly Weather History & Observations

Time (CST) Temp. Windchill Dew Point Humidity Pressure Visibility Wind Dir Wind Speed Gust Speed Precip Events Conditions
12:53 AM 3.0 °F -6.4 °F -8.0 °F 60% 29.70 in 10.0 mi SW 4.6 mph - N/A   Mostly Cloudy
1:53 AM 3.0 °F -9.3 °F -7.1 °F 63% 29.69 in 10.0 mi South 6.9 mph - N/A   Scattered Clouds
2:53 AM 3.9 °F -9.4 °F -6.0 °F 64% 29.69 in 10.0 mi SSW 8.1 mph - N/A   Overcast
3:29 AM 3.9 °F -6.9 °F -4.0 °F 70% 29.61 in 2.5 mi South 5.8 mph - 0.00 in Snow Light Snow
3:53 AM 3.9 °F -6.9 °F -2.0 °F 76% 29.65 in 1.5 mi SSW 5.8 mph - 0.00 in Snow Light Snow
4:19 AM 3.9 °F -3.4 °F -0.0 °F 84% 29.58 in 1.2 mi SSW 3.5 mph - 0.01 in Snow Light Snow
4:35 AM 3.9 °F -3.4 °F -0.0 °F 84% 29.57 in 1.2 mi South 3.5 mph - 0.01 in Snow Light Snow
4:53 AM 3.9 °F - -0.0 °F 84% 29.60 in 1.2 mi Calm Calm - 0.01 in Snow Light Snow
5:36 AM 3.9 °F - 1.9 °F 91% 29.52 in 2.0 mi Calm Calm - 0.02 in Snow Light Snow
5:48 AM 3.2 °F - -0.4 °F 85% 29.51 in 1.2 mi Calm Calm - 0.02 in Snow Light Snow
5:53 AM 3.9 °F - 1.0 °F 88% 29.56 in 1.0 mi Calm Calm - 0.02 in Snow Light Snow
6:23 AM 3.9 °F - 1.0 °F 88% 29.48 in 2.0 mi Calm Calm - 0.01 in Snow Light Snow
6:48 AM 3.2 °F - 1.4 °F 92% 29.48 in 2.5 mi Calm Calm - 0.01 in Snow Light Snow
6:53 AM 5.0 °F - 1.9 °F 87% 29.53 in 3.0 mi Calm Calm - 0.01 in Snow Light Snow
7:00 AM 3.9 °F - 3.0 °F 96% 29.46 in 2.5 mi Calm Calm - 0.00 in Snow Light Snow
7:06 AM 5.0 °F - 1.9 °F 87% 29.47 in 0.8 mi Calm Calm - 0.00 in Snow Light Snow
7:16 AM 5.0 °F - 1.9 °F 87% 29.48 in 1.0 mi Calm Calm - 0.01 in Snow Light Snow
7:36 AM 5.0 °F -2.1 °F 1.0 °F 84% 29.46 in 1.0 mi East 3.5 mph - 0.01 in Snow Light Snow
7:53 AM 3.9 °F -3.4 °F 1.9 °F 91% 29.49 in 1.8 mi ESE 3.5 mph - 0.01 in Snow Light Snow
7:58 AM 3.9 °F -3.4 °F 1.9 °F 91% 29.43 in 2.0 mi ESE 3.5 mph - 0.00 in Snow Light Snow
8:25 AM 6.1 °F - 3.0 °F 87% 29.41 in 1.8 mi Calm Calm - 0.00 in Snow Light Snow
8:29 AM 5.0 °F -2.1 °F 3.0 °F 92% 29.41 in 2.0 mi South 3.5 mph - 0.00 in Snow Light Snow
8:41 AM 5.0 °F -2.1 °F 1.9 °F 87% 29.42 in 1.2 mi SSW 3.5 mph - 0.00 in Snow Light Snow
8:53 AM 6.1 °F - 3.9 °F 91% 29.46 in 1.5 mi Calm Calm - 0.00 in Snow Light Snow
9:18 AM 6.1 °F -2.8 °F 1.9 °F 83% 29.38 in 2.0 mi SW 4.6 mph - 0.00 in Snow Light Snow
9:25 AM 6.1 °F -0.9 °F 3.0 °F 87% 29.38 in 2.0 mi WSW 3.5 mph - 0.00 in Snow Light Snow
9:44 AM 7.0 °F -3.3 °F 3.9 °F 87% 29.39 in 1.8 mi West 5.8 mph - 0.00 in Snow Light Snow
9:51 AM 6.8 °F -2.0 °F 3.2 °F 85% 29.39 in 2.0 mi West 4.6 mph - 0.00 in Snow Light Snow
9:53 AM 7.0 °F -1.7 °F 3.9 °F 87% 29.44 in 2.0 mi WSW 4.6 mph - 0.00 in Snow Light Snow
10:53 AM 10.9 °F -2.6 °F 7.0 °F 84% 29.42 in 2.0 mi SW 10.4 mph - 0.00 in Snow Light Snow
11:06 AM 10.9 °F -4.1 °F 8.1 °F 88% 29.35 in 1.5 mi SW 12.7 mph - 0.00 in Snow Light Snow
11:40 AM 10.9 °F -3.4 °F 8.1 °F 88% 29.32 in 3.0 mi SW 11.5 mph - 0.01 in Snow Light Snow
11:53 AM 12.0 °F -1.3 °F 8.1 °F 84% 29.35 in 8.0 mi SSW 10.4 mph - 0.01 in   Overcast
12:15 PM 14.0 °F -1.4 °F 8.1 °F 77% 29.30 in 10.0 mi WSW 15.0 mph - N/A   Overcast
12:53 PM 15.1 °F -2.5 °F 8.1 °F 74% 29.37 in 6.0 mi West 20.7 mph 29.9 mph 0.00 in Snow Light Snow
1:53 PM 14.0 °F -4.7 °F 8.1 °F 77% 29.37 in 10.0 mi West 23.0 mph 28.8 mph 0.00 in   Overcast
2:53 PM 15.1 °F -2.5 °F 9.0 °F 77% 29.36 in 10.0 mi West 20.7 mph 25.3 mph 0.00 in   Overcast
3:04 PM 15.1 °F -2.9 °F 9.0 °F 77% 29.32 in 10.0 mi West 21.9 mph 27.6 mph N/A   Overcast
3:53 PM 17.1 °F 0.1 °F 10.0 °F 74% 29.39 in 7.0 mi West 20.7 mph 32.2 mph 0.00 in Snow Light Snow
4:53 PM 17.1 °F 0.6 °F 10.0 °F 74% 29.42 in 8.0 mi West 19.6 mph 28.8 mph 0.00 in   Overcast
5:32 PM 16.0 °F 0.1 °F 10.9 °F 81% 29.40 in 2.0 mi WNW 17.3 mph 26.5 mph 0.00 in Snow Light Snow
5:40 PM 16.0 °F -0.9 °F 12.0 °F 84% 29.40 in 1.5 mi WNW 19.6 mph 29.9 mph 0.00 in Snow Light Snow
5:53 PM 15.1 °F -2.0 °F 10.0 °F 80% 29.47 in 1.8 mi WNW 19.6 mph 31.1 mph 0.00 in Snow Light Snow
5:58 PM 15.1 °F -0.1 °F 10.0 °F 80% 29.42 in 3.0 mi WNW 15.0 mph 28.8 mph 0.00 in Snow Light Snow
6:10 PM 15.1 °F 0.5 °F 9.0 °F 77% 29.43 in 10.0 mi WNW 13.8 mph - 0.00 in   Overcast
6:53 PM 14.0 °F -0.8 °F 6.1 °F 71% 29.49 in 8.0 mi NW 13.8 mph 21.9 mph 0.00 in   Overcast
7:53 PM 12.0 °F -3.4 °F 3.9 °F 70% 29.53 in 10.0 mi NW 13.8 mph 24.2 mph 0.00 in   Overcast
8:53 PM 10.9 °F -6.5 °F 3.9 °F 73% 29.56 in 6.0 mi NW 17.3 mph - 0.00 in   Haze
9:53 PM 8.1 °F -12.2 °F -2.9 °F 61% 29.62 in 7.0 mi NW 21.9 mph 33.4 mph N/A   Mostly Cloudy
10:53 PM 7.0 °F -13.1 °F -2.0 °F 67% 29.68 in 6.0 mi NW 20.7 mph 29.9 mph 0.00 in Snow Blowing Snow
11:53 PM 6.1 °F -12.8 °F -0.0 °F 76% 29.74 in 7.0 mi WNW 17.3 mph 28.8 mph 0.00 in   Overcast